This demonstration page uses our WeatherBlox Daily Observations layout. Learn more.

38.88101, -77.10428

Hourly Observations for June 5, 2016

Temp ( °F °C ) Dew Point ( °F °C ) Humidity (%) Winds ( mph kmh ) Pressure ( in mb ) Visibility ( mi km ) Precip ( " mm )
12:41 am 00:41 Cloudy 74 23.3 70 21.1 88 88 S 10 17 29.91 1013 10 16.0934 0 0
12:52 am 00:52 Cloudy with Light Rain 74 23.3 71 21.7 91 91 S 10 17 29.89 1012 10 16.0934 0 0.0254
1:21 am 01:21 Cloudy with Light Rain 74 23.3 71 21.7 91 91 S 8 13 29.88 1012 9 14.48406 0.01 0.254
1:52 am 01:52 Cloudy with Light Rain 73 22.8 71 21.7 94 94 S 14 22 29.88 1012 10 16.0934 0.02 0.508
2:52 am 02:52 Cloudy with Light Rain 73 23 72 22 94 94 SSE 9 15 29.86 1011 6 9.65604 0 0
3:52 am 03:52 Cloudy with Light Rain 73 22.8 71 21.7 94 94 SSE 8 13 29.82 1010 10 16.0934 0.03 0.762
4:52 am 04:52 Cloudy 73 22.8 71 21.7 94 94 SSE 10 17 29.79 1009 10 16.0934 0 0.0254
5:13 am 05:13 Cloudy with Light Rain 73 22.8 71 21.7 94 94 S 12 19 29.8 1009 10 16.0934 0 0.0254
5:52 am 05:52 Cloudy 73 22.8 71 21.7 94 94 S 9 15 29.78 1009 10 16.0934 0 0.0254
6:33 am 06:33 Cloudy 73 22.8 70 21.1 90 90 S 9 15 29.77 1008 10 16.0934 0 0
6:52 am 06:52 Cloudy 73 22.8 70 21.1 90 90 S 7 11 29.78 1008 10 16.0934 0 0
7:12 am 07:12 Cloudy 73 22.8 70 21.1 90 90 S 8 13 29.77 1008 10 16.0934 0 0
7:21 am 07:21 Cloudy 73 22.8 71 21.7 94 94 SSW 7 11 29.77 1008 10 16.0934 0 0
7:28 am 07:28 Cloudy 74 23.3 71 21.7 91 91 S 7 11 29.77 1008 10 16.0934 0 0
7:30 am 07:30 Cloudy 73 23 72 22 94 94 S 8 13 29.77 1008 10 16.0934 0 0
7:32 am 07:32 Cloudy 74 23.3 71 21.7 91 91 S 8 13 29.77 1008 10 16.0934 0 0
7:52 am 07:52 Cloudy 73 22.8 71 21.7 94 94 S 8 13 29.78 1008 10 16.0934 0 0
8:06 am 08:06 Cloudy 74 23.3 71 21.7 91 91 SSW 8 13 29.8 1009 10 16.0934 0 0
8:21 am 08:21 Cloudy 75 23.9 70 21.1 84 84 SSW 10 17 29.77 1008 10 16.0934 0 0
8:52 am 08:52 Mostly Cloudy 75 23.9 71 21.7 88 88 S 10 17 29.78 1009 10 16.0934 0 0
9:52 am 09:52 Cloudy 76 24.4 71 21.7 85 85 SSW 10 17 29.78 1008 10 16.0934 0 0
10:52 am 10:52 Cloudy 77 25 70 21.1 79 79 SSW 15 24 29.76 1008 10 16.0934 0 0
11:52 am 11:52 Cloudy 78 25.6 71 21.7 79 79 SSW 12 19 29.74 1007 10 16.0934 0 0
12:52 pm 12:52 Cloudy 79 26.1 71 21.7 77 77 S 15 24 29.72 1007 10 16.0934 0 0
1:52 pm 13:52 Cloudy 80 26.7 72 22.2 76 76 S 14 22 29.7 1006 10 16.0934 0 0
2:42 pm 14:42 Mostly Cloudy 82 28 72 22 70 70 S 15 24 29.68 1005 10 16.0934 0 0
2:52 pm 14:52 Mostly Cloudy 82 27.8 72 22.2 72 72 SSW 17 28 29.68 1005 10 16.0934 0 0
3:52 pm 15:52 Mostly Cloudy 83 28.3 71 21.7 67 67 SW 18 30 29.66 1005 10 16.0934 0 0
4:38 pm 16:38 Mostly Cloudy 84 29 72 22 66 66 SSW 15 24 29.65 1004 10 16.0934 0 0
4:52 pm 16:52 Mostly Cloudy 85 29.4 71 21.7 63 63 SW 18 30 29.65 1004 10 16.0934 0 0
5:24 pm 17:24 Mostly Cloudy 84 29 70 21 62 62 WSW 12 19 29.68 1005 10 16.0934 0 0
5:30 pm 17:30 Mostly Cloudy 82 28 68 20 62 62 NNW 23 37 29.68 1005 10 16.0934 0 0
5:49 pm 17:49 Cloudy 77 25 64 18 65 65 NW 13 20 29.68 1005 10 16.0934 0 0
5:52 pm 17:52 Cloudy 77 25 65 18.3 66 66 NNW 18 30 29.67 1005 10 16.0934 0 0
6:52 pm 18:52 Cloudy 76 24.4 65 18.3 69 69 NW 8 13 29.67 1005 10 16.0934 0 0
7:14 pm 19:14 Cloudy with Light Rain 75 24 64 18 69 69 NNW 8 13 29.68 1005 10 16.0934 0 0
7:24 pm 19:24 Cloudy with Light Rain 73 23 66 19 78 78 NW 8 13 29.68 1005 9 14.48406 0 0
7:32 pm 19:32 Cloudy with Light Rain 73 23 66 19 78 78 WSW 5 7 29.71 1006 4 6.43736 0 0
7:52 pm 19:52 Cloudy 73 22.8 68 20 84 84 S 6 9 29.69 1006 10 16.0934 0.05 1.27
8:52 pm 20:52 Mostly Cloudy 73 22.8 68 20 84 84 S 6 9 29.7 1006 10 16.0934 0 0
9:52 pm 21:52 Mostly Cloudy 73 22.8 70 21.1 90 90 S 5 7 29.71 1006 10 16.0934 0 0
10:52 pm 22:52 Mostly Cloudy 73 22.8 70 21.1 90 90 SW 7 11 29.74 1007 10 16.0934 0 0
11:52 pm 23:52 Mostly Cloudy 72 22.2 68 20 87 87 SW 6 9 29.74 1007 10 16.0934 0 0

Powered by AerisWeather